EW8115 Weather Reports


time (UTC)temp
C
wind
direction
speed
KPH
gust
KPH
rain 1hr
cm
rain 24hr
cm
rain mn
cm
humidity
%
barometer
mb
20260504050005 13 71 0.0 0.0 0.00 0.00 0.00 69 1017.3
20260504044509 13 71 0.0 0.0 0.00 0.00 0.00 68 1017.3
20260504043006 14 71 0.0 0.0 0.00 0.00 0.00 68 1017.3
20260504041503 14 71 0.0 1.6 0.00 0.00 0.00 68 1017.1
20260504040003 15 82 0.0 4.8 0.00 0.00 0.00 69 1017.2
20260504034503 15 88 0.0 0.0 0.00 0.00 0.00 68 1017.0
20260504033002 15 88 0.0 0.0 0.00 0.00 0.00 66 1017.2
20260504031501 16 88 0.0 3.2 0.00 0.00 0.00 66 1017.2
20260504030001 16 205 0.0 0.0 0.00 0.00 0.00 65 1017.2
20260504024605 16 237 0.0 0.0 0.00 0.00 0.00 62 1017.2
20260504023100 16 237 0.0 0.0 0.00 0.00 0.00 60 1017.1
20260504021600 17 237 0.0 0.0 0.00 0.00 0.00 59 1016.8
20260504020112 17 237 0.0 0.0 0.00 0.00 0.00 56 1016.8
20260504014558 18 237 0.0 1.6 0.00 0.00 0.00 53 1016.6
20260504013058 18 237 0.0 0.0 0.00 0.00 0.00 51 1016.4
20260504011556 19 237 0.0 0.0 0.00 0.00 0.00 48 1016.2
20260504010057 20 237 0.0 1.6 0.00 0.00 0.00 46 1016.1
20260504004556 20 240 0.0 6.4 0.00 0.00 0.00 46 1016.0
20260504003056 20 242 3.2 8.0 0.00 0.00 0.00 43 1015.9
20260504001556 21 241 6.4 12.9 0.00 0.00 0.00 42 1015.7
20260504000054 22 254 4.8 12.9 0.00 0.00 0.00 40 1015.6
20260503234623 22 269 6.4 20.9 0.00 0.00 0.00 38 1015.7
20260503233153 23 256 8.0 19.3 0.00 0.00 0.00 37 1015.6
20260503231552 24 290 8.0 16.1 0.00 0.00 0.00 23 1015.5
20260503230055 25 279 6.4 14.5 0.00 0.00 0.00 21 1015.5
20260503224551 25 280 3.2 8.0 0.00 0.00 0.00 22 1015.4
20260503223051 25 327 3.2 14.5 0.00 0.00 0.00 21 1015.4
20260503221557 25 298 3.2 9.7 0.00 0.00 0.00 20 1015.4
20260503220047 25 323 3.2 14.5 0.00 0.00 0.00 21 1015.6
20260503214545 25 43 1.6 14.5 0.00 0.00 0.00 19 1015.7
20260503213044 26 111 1.6 12.9 0.00 0.00 0.00 20 1015.8
20260503211541 26 5 1.6 9.7 0.00 0.00 0.00 19 1016.0
20260503210041 25 12 3.2 12.9 0.00 0.00 0.00 18 1016.0
20260503204543 25 77 3.2 24.1 0.00 0.00 0.00 20 1016.1
20260503203052 25 300 3.2 12.9 0.00 0.00 0.00 19 1016.4
20260503201536 25 49 3.2 11.3 0.00 0.00 0.00 19 1016.5
20260503200034 25 351 4.8 17.7 0.00 0.00 0.00 19 1016.8
20260503194533 25 360 1.6 16.1 0.00 0.00 0.00 21 1017.1
20260503193032 25 75 3.2 14.5 0.00 0.00 0.00 20 1017.4
20260503191534 25 234 3.2 16.1 0.00 0.00 0.00 19 1017.7
20260503190028 25 81 3.2 12.9 0.00 0.00 0.00 19 1018.0
20260503184526 25 177 3.2 25.7 0.00 0.00 0.00 17 1018.1
20260503183025 25 262 1.6 9.7 0.00 0.00 0.00 15 1018.4
20260503181521 25 102 3.2 8.0 0.00 0.00 0.00 18 1018.5
20260503180020 25 60 4.8 16.1 0.00 0.00 0.00 19 1018.5
20260503174518 25 350 6.4 20.9 0.00 0.00 0.00 20 1018.6
20260503173015 24 360 3.2 12.9 0.00 0.00 0.00 25 1018.7
20260503171512 24 70 3.2 9.7 0.00 0.00 0.00 23 1018.9
20260503110108 8 5 0.0 0.0 0.00 0.36 0.00 75 1018.5
20260503081535 10 5 0.0 0.0 0.00 1.60 0.00 73 1017.5